Track STARLINK-1337 now! 10-day predictions STARLINK-1337 is classified as:
1 45582U 20025BD 21027.15288315 .00026072 00000-0 17682-2 0 9991 2 45582 53.0021 180.3083 0001126 111.6312 248.4796 15.06284694 43423